Terminal Aerodrome Forecast
Issued by NWS

Home | Current Version | Previous Version | Text Only | Print | Product List | Glossary On
Versions: 1 2 3 4 5 6 7 8 9 10 11 12 13 14 15 16 17 18 19 20 21 22 23 24 25
000
FTUS43 KDLH 271457 AAA
TAFBRD
TAF AMD
KBRD 271457Z 2715/2812 04005KT 5SM BR VCTS SCT015CB BKN030
     FM272000 05004KT P6SM SCT020 BKN050
     FM280100 VRB03KT P6SM SCT040 BKN100
     FM280600 VRB02KT 4SM BR SCT010
      TEMPO 2808/2812 3/4SM BR SCT005=

USA.gov is the U.S. government's official web portal to all federal, state and local government web resources and services.